Regional Weather Roundup
Issued by NWS

Home | Current Version | Previous Version | Graphics & Text | Print | Product List | Glossary On
Versions: 1 2 3 4 5 6 7 8 9 10 11 12 13 14 15 16 17 18 19 20 21 22 23 24 25 26 27 28 29 30 31 32 33 34 35 36 37 38 39 40 41 42 43 44 45 46 47 48 49 50
000
ASUS43 KLOT 231706
RWRIL

ILLINOIS REGIONAL WEATHER ROUNDUP
NATIONAL WEATHER SERVICE CHICAGO/ROMEOVILLE IL
1200 PM CDT WED JUL 23 2014

NOTE: "FAIR" INDICATES FEW OR NO CLOUDS BELOW 12,000 FEET WITH NO
SIGNIFICANT WEATHER AND/OR OBSTRUCTIONS TO VISIBILITY.

* THESE STATIONS ARE NOT UNDER NWS QUALITY CONTROL. THEY ALSO MAY NOT
  REPORT WEATHER SUCH AS PRECIPITATION OR FOG.

ILZ001-002-007-009-015-016-024-231800-
NORTHWEST ILLINOIS

CITY           SKY/WX    TMP DP  RH WIND       PRES   REMARKS
MOLINE         SUNNY     77  56  48 NE16G25   30.16F
STERLING*      SUNNY     79  57  47 NE10G17   30.18S HX  80
SAVANNA*       SUNNY     77  53  43 NE14G20   30.19F
$$

ILZ003-004-008-010-011-017-018-231800-
NORTH CENTRAL ILLINOIS

CITY           SKY/WX    TMP DP  RH WIND       PRES   REMARKS
ROCKFORD       MOSUNNY   76  53  44 NE17G23   30.20R
FREEPORT*      MOSUNNY   71  57  60 N14       30.21F
ROCHELLE*      MOSUNNY   74  55  51 N12G18    30.18S
DE KALB*       MOSUNNY   73  55  54 N13       30.18S
PERU*          SUNNY     75  57  52 NE14G20   30.17R
$$

ILZ005-006-012>014-019>023-231800-
NORTHEAST ILLINOIS

CITY           SKY/WX    TMP DP  RH WIND       PRES   REMARKS
CHICAGO-OHARE  MOSUNNY   71  51  49 NE18      30.17R
CHICAGO-MIDWAY MOSUNNY   72  58  61 NE20G25   30.17R
AURORA         SUNNY     75  53  46 NE18G25   30.16S
LANSING*       MOSUNNY   67  56  67 N16G23    30.17R
JOLIET*        SUNNY     73  53  48 N15       30.16S
WAUKEGAN       SUNNY     69  53  56 N17       30.16S
DUPAGE AIRPORT SUNNY     75  55  49 N17G23    30.16R
KANKAKEE*      MOSUNNY   72  59  63 N14G21    30.16R
WHEELING       SUNNY     71  56  58 NE14G24   30.18S
MORRIS*        SUNNY     76  57  53 E9G16     30.15R
ROMEOVILLE*    SUNNY     72  53  52 N17G24    30.15S
NORTHERLY ISL    N/A     65  56  72 N14         N/A
$$

LMZ740>746-231800-
SOUTHERN LAKE MICHIGAN

STATION/POSITION SKY/WX   TEMP    WIND        PRES    VSBY  WAVE
                          AIR SEA DIR/SP/G                  HT/PER
                          (F)     (DEG/KT/KT) (MB)    (MI)  (FT/S)
SOUTHERN BUOY              59 60  350/ 17/ 21 1020.9S         5/ 6
WAUKEGAN HARBOR            62      20/ 20/ 24 1022.7R
HARRISON CRIB              62     360/ 24/ 28   N/A
BURNHAM HARBOR             65     350/ 14/ 19   N/A
CALUMET HARBOR             65     350/ 15/ 22 1020.4R
MICHIGAN CITY              63     340/ 22/ 25   N/A
$$

ILZ025>027-034>036-040-047-049-050-058-095>099-231800-
WEST-CENTRAL ILLINOIS

CITY           SKY/WX    TMP DP  RH WIND       PRES   REMARKS
QUINCY         PTSUNNY   79  69  71 N12       30.13R HX  81
GALESBURG*     SUNNY     77  61  57 N14       30.16S
MACOMB*        SUNNY     75  62  63 NE15      30.18R
JACKSONVILLE*  SUNNY     79  65  61 NE14      30.13S HX  81
PITTSFIELD*    CLOUDY    79  68  69 NE10      30.13R HX  81
$$

ILZ028>032-037-038-041>044-048-051>054-059>061-231800-
CENTRAL ILLINOIS

CITY           SKY/WX    TMP DP  RH WIND       PRES   REMARKS
PONTIAC        MOSUNNY   75  61  60 N14       30.14F
BLOOMINGTON    MOSUNNY   74  59  59 NE18G25   30.15S
DECATUR        MOSUNNY   79  77  94 N16       30.12S HX  83
PEORIA         SUNNY     79  57  46 NE13G21   30.14R HX  80
LACON*         SUNNY     75  58  55 N8G17     30.16R
LINCOLN*       SUNNY     78  61  56 N15       30.10S
SPRINGFIELD    MOSUNNY   80  63  55 N12G23    30.11S HX  81
TAYLORVILLE    CLOUDY    73  63  68 N14       30.11S
$$

ILZ033-039-045-046-055>057-062-063-231800-
EAST-CENTRAL ILLINOIS

CITY           SKY/WX    TMP DP  RH WIND       PRES   REMARKS
CHAMPAIGN      MOSUNNY   76  62  62 N15G23    30.11R
RANTOUL*       SUNNY     77  59  53 N15       30.13S
MATTOON        CLOUDY    70  63  78 N10       30.09S
PARIS*         CLOUDY    70  65  84 N5        30.10R
$$

ILZ079-100>102-231800-
SOUTHWEST ILLINOIS

CITY           SKY/WX    TMP DP  RH WIND       PRES   REMARKS
ALTON          CLOUDY    77  73  88 N15       30.09S
BELLEVILLE     CLOUDY    84  78  83 SE7       30.04F HX  94
CAHOKIA*       PTSUNNY   85  75  72 N13       30.05S HX  93
SPARTA*        CLOUDY    75  70  83 SE9       30.05F
$$

ILZ064>066-069>071-074>076-080>082-084>086-088>090-092>094-231800-
SOUTH-CENTRAL ILLINOIS

CITY           SKY/WX    TMP DP  RH WIND       PRES   REMARKS
CARBONDALE     CLOUDY    73  68  84 SE9       30.04S
CAIRO*         TSTM      74  69  81 S16       30.08F
MARION         CLOUDY    72  70  94 S12       30.04F
MT. VERNON     CLOUDY    73  66  78 SW9       30.05F
CENTRALIA*     CLOUDY    83  69  62 SW7       30.06F HX  86
SALEM*         CLOUDY    77  72  84 SW7       30.07S
METROPOLIS*    TSTM      73  68  85 S7        30.07F
$$

ILZ067-068-072-073-078-083-087-091-231800-
SOUTHEAST ILLINOIS

CITY           SKY/WX    TMP DP  RH WIND       PRES   REMARKS
FLORA*         CLOUDY    77  72  84 NW7       30.06S
FAIRFIELD*     CLOUDY    75  73  94 W6        30.03F
HARRISBURG*    CLOUDY    70  69  97 CALM      30.00F
ROBINSON*      CLOUDY    77  73  88 NW6       30.07R
CARMI*         CLOUDY    73  72  94 E5        30.02F
$$

ABBREVIATIONS USED IN REMARKS
   TC - TEMPERATURE IN CELSIUS
  WCI - WIND CHILL INDEX
   HX - HEAT INDEX
  VSB - VISIBILITY
$$




USA.gov is the U.S. government's official web portal to all federal, state and local government web resources and services.